Tucson Davis Monthan, AZ

6:51 PM MST on October 18, 2019 (GMT -0700)
Davis-Monthan Air Force Base

Weather History for KDMA - September, 2019

Change the Weather History Date:

Tuesday, September 17, 2019

  Actual Average Record
Temperature  
Mean Temperature 78 °F -  
Max Temperature 92 °F 93 °F 105 °F (1956)
Min Temperature 63 °F 67 °F 59 °F (1970)
Cooling Degree Days 12    
Growing Degree Days 28 (Base 50)    
Moisture  
Dew Point 58 °F    
Average Humidity 55    
Maximum Humidity 88    
Minimum Humidity 24    
Precipitation  
Precipitation 0.00 in - - ()
Sea Level Pressure  
Sea Level Pressure 29.87 in    
Wind  
Wind Speed 5 mph (SSE)    
Max Wind Speed 9 mph    
Max Gust Speed -    
Visibility 10 miles    
Events      
Averages and records for this station are not official NWS values.
T = Trace of Precipitation, MM = Missing Value Source: NWS Daily Summary

Daily Weather History Graph

Daily Weather History Graph

Search for Another Location

Airport or City:

Astronomy

Sep. 17, 2019 Rise Set
Actual Time 6:08 AM MST 6:27 PM MST
Civil Twilight 5:44 AM MST 6:51 PM MST
Nautical Twilight 5:15 AM MST 7:20 PM MST
Astronomical Twilight 4:46 AM MST 7:49 PM MST
Moon 8:42 PM MST (9/17) 9:07 AM MST (9/17)
Length of Visible Light 13h 07m
Length of Day
12h 18m
Waning Gibbous, 88% of the Moon is Illuminated
Sep 17
Waning Gibbous
Sep 21
Last Quarter
Sep 28
New
Oct 5
First Quarter
Oct 13
Full

Hourly Weather History & Observations

Time (MST) Temp. Heat Index Dew Point Humidity Pressure Visibility Wind Dir Wind Speed Gust Speed Precip Events Conditions
12:58 AM 67.1 °F - 61.3 °F 82% 29.88 in 10.0 mi ESE 5.8 mph - N/A   Clear
1:58 AM 65.3 °F - 61.3 °F 87% 29.87 in 10.0 mi SE 5.8 mph - N/A   Clear
2:58 AM 65.3 °F - 61.0 °F 86% 29.88 in 10.0 mi South 5.8 mph - N/A   Clear
3:58 AM 66.0 °F - 60.3 °F 82% 29.90 in 10.0 mi South 8.1 mph - N/A   Clear
4:58 AM 65.3 °F - 60.6 °F 85% 29.91 in 10.0 mi South 3.5 mph - N/A   Clear
5:58 AM 63.9 °F - 60.3 °F 88% 29.91 in 10.0 mi SSE 6.9 mph - N/A   Clear
6:58 AM 66.0 °F - 60.6 °F 83% 29.94 in 10.0 mi South 4.6 mph - N/A   Clear
7:58 AM 71.1 °F - 60.3 °F 69% 29.96 in 7.0 mi South 6.9 mph - N/A   Clear
8:58 AM 75.6 °F - 61.5 °F 62% 29.95 in 7.0 mi South 3.5 mph - N/A   Clear
10:58 AM 85.1 °F 84.3 °F 57.4 °F 39% 29.92 in 10.0 mi Calm Calm - N/A   Clear
11:58 AM 85.8 °F 84.8 °F 57.2 °F 38% 29.91 in 10.0 mi Calm Calm - N/A   Clear
12:58 PM 88.3 °F 86.7 °F 55.6 °F 33% 29.88 in 10.0 mi WSW 5.8 mph - N/A   Clear
1:58 PM 89.8 °F - 52.3 °F 28% 29.86 in 10.0 mi NNW 5.8 mph - N/A   Clear
2:58 PM 91.0 °F 88.7 °F 53.4 °F 28% 29.83 in 10.0 mi West 5.8 mph - N/A   Clear
3:58 PM 92.1 °F 90.0 °F 54.3 °F 28% 29.81 in 10.0 mi North 5.8 mph - N/A   Clear
4:58 PM 91.9 °F - 50.0 °F 24% 29.80 in 10.0 mi North 9.2 mph - N/A   Clear
5:58 PM 90.0 °F - 52.5 °F 28% 29.81 in 10.0 mi North 9.2 mph - N/A   Clear
6:58 PM 86.9 °F - 52.5 °F 31% 29.81 in 10.0 mi NNE 5.8 mph - N/A   Clear
7:58 PM 83.1 °F 82.6 °F 57.0 °F 41% 29.81 in 10.0 mi East 3.5 mph - N/A   Clear
8:58 PM 79.2 °F - 61.0 °F 54% 29.83 in 10.0 mi ESE 5.8 mph - N/A   Clear
9:58 PM 77.0 °F - 59.5 °F 55% 29.82 in 10.0 mi SE 5.8 mph - N/A   Clear
10:58 PM 74.8 °F - 60.4 °F 61% 29.83 in 10.0 mi South 3.5 mph - N/A   Clear
11:58 PM 73.6 °F - 60.3 °F 63% 29.83 in 10.0 mi South 5.8 mph - N/A   Clear